Year,Month,Day,Hour,Minute,Value (Times are PST for windspeed in km/hr)
2012,01,26,00,00,0.00
2012,01,26,00,01,1.00
2012,01,26,00,02,4.20
2012,01,26,00,03,5.60
2012,01,26,00,04,8.10
2012,01,26,00,05,3.50
2012,01,26,00,06,0.20
2012,01,26,00,07,3.00
2012,01,26,00,08,0.30
2012,01,26,00,09,0.10
2012,01,26,00,10,1.00
2012,01,26,00,11,2.10
2012,01,26,00,12,0.00
2012,01,26,00,13,0.00
2012,01,26,00,14,0.10
2012,01,26,00,15,0.00
2012,01,26,00,16,0.00
2012,01,26,00,17,0.00
2012,01,26,00,18,0.00
2012,01,26,00,19,0.00
2012,01,26,00,20,0.00
2012,01,26,00,21,0.00
2012,01,26,00,22,0.00
2012,01,26,00,23,0.00
2012,01,26,00,24,0.00
2012,01,26,00,25,0.00
2012,01,26,00,26,0.00
2012,01,26,00,27,0.00
2012,01,26,00,28,0.90
2012,01,26,00,29,0.20
2012,01,26,00,30,0.00
2012,01,26,00,31,0.20
2012,01,26,00,32,3.00
2012,01,26,00,33,0.00
2012,01,26,00,34,0.00
2012,01,26,00,35,3.00
2012,01,26,00,36,5.10
2012,01,26,00,37,1.40
2012,01,26,00,38,0.00
2012,01,26,00,39,0.10
2012,01,26,00,40,0.00
2012,01,26,00,41,0.00
2012,01,26,00,42,0.10
2012,01,26,00,43,2.20
2012,01,26,00,44,0.50
2012,01,26,00,45,0.00
2012,01,26,00,46,0.10
2012,01,26,00,47,0.00
2012,01,26,00,48,0.60
2012,01,26,00,49,0.00
2012,01,26,00,50,1.00
2012,01,26,00,51,3.30
2012,01,26,00,52,3.50
2012,01,26,00,53,3.30
2012,01,26,00,54,5.00
2012,01,26,00,55,3.80
2012,01,26,00,56,4.60
2012,01,26,00,57,5.00
2012,01,26,00,58,7.60
2012,01,26,00,59,6.80
2012,01,26,01,00,9.00
2012,01,26,01,01,10.30
2012,01,26,01,02,10.60
2012,01,26,01,03,11.00
2012,01,26,01,04,10.90
2012,01,26,01,05,9.70
2012,01,26,01,06,12.70
2012,01,26,01,07,15.80
2012,01,26,01,08,10.90
2012,01,26,01,09,22.00
2012,01,26,01,10,27.50
2012,01,26,01,11,25.80
2012,01,26,01,12,31.20
2012,01,26,01,13,28.40
2012,01,26,01,14,39.00
2012,01,26,01,15,33.90
2012,01,26,01,16,32.50
2012,01,26,01,17,35.00
2012,01,26,01,18,39.90
2012,01,26,01,19,42.80
2012,01,26,01,20,44.30
2012,01,26,01,21,34.40
2012,01,26,01,22,35.10
2012,01,26,01,23,31.80
2012,01,26,01,24,35.20
2012,01,26,01,25,36.00
2012,01,26,01,26,40.00
2012,01,26,01,27,35.90
2012,01,26,01,28,38.90
2012,01,26,01,29,32.10
2012,01,26,01,30,33.90
2012,01,26,01,31,28.60
2012,01,26,01,32,27.00
2012,01,26,01,33,39.10
2012,01,26,01,34,27.40
2012,01,26,01,35,25.80
2012,01,26,01,36,28.30
2012,01,26,01,37,19.10
2012,01,26,01,38,28.10
2012,01,26,01,39,28.60
2012,01,26,01,40,35.40
2012,01,26,01,41,36.20
2012,01,26,01,42,32.60
2012,01,26,01,43,37.20
2012,01,26,01,44,30.20
2012,01,26,01,45,35.60
2012,01,26,01,46,35.70
2012,01,26,01,47,35.60
2012,01,26,01,48,49.60
2012,01,26,01,49,34.10
2012,01,26,01,50,36.60
2012,01,26,01,51,39.20
2012,01,26,01,52,36.90
2012,01,26,01,53,41.90
2012,01,26,01,54,32.40
2012,01,26,01,55,28.30
2012,01,26,01,56,27.30
2012,01,26,01,57,35.30
2012,01,26,01,58,42.80
2012,01,26,01,59,39.30
2012,01,26,02,00,34.60
2012,01,26,02,01,36.90
2012,01,26,02,02,35.10
2012,01,26,02,03,28.90
2012,01,26,02,04,25.60
2012,01,26,02,05,38.60
2012,01,26,02,06,31.30
2012,01,26,02,07,27.60
2012,01,26,02,08,25.50
2012,01,26,02,09,28.50
2012,01,26,02,10,35.40
2012,01,26,02,11,33.50
2012,01,26,02,12,35.80
2012,01,26,02,13,31.70
2012,01,26,02,14,25.10
2012,01,26,02,15,34.70
2012,01,26,02,16,30.90
2012,01,26,02,17,25.30
2012,01,26,02,18,31.20
2012,01,26,02,19,38.40
2012,01,26,02,20,31.50
2012,01,26,02,21,28.60
2012,01,26,02,22,34.40
2012,01,26,02,23,33.90
2012,01,26,02,24,29.50
2012,01,26,02,25,38.00
2012,01,26,02,26,31.40
2012,01,26,02,27,35.00
2012,01,26,02,28,28.60
2012,01,26,02,29,30.10
2012,01,26,02,30,37.80
2012,01,26,02,31,32.90
2012,01,26,02,32,29.40
2012,01,26,02,33,33.00
2012,01,26,02,34,27.70
2012,01,26,02,35,26.60
2012,01,26,02,36,23.00
2012,01,26,02,37,31.50
2012,01,26,02,38,24.10
2012,01,26,02,39,31.50
2012,01,26,02,40,38.90
2012,01,26,02,41,32.70
2012,01,26,02,42,38.10
2012,01,26,02,43,37.70
2012,01,26,02,44,20.50
2012,01,26,02,45,34.20
2012,01,26,02,46,35.50
2012,01,26,02,47,25.00
2012,01,26,02,48,24.20
2012,01,26,02,49,28.10
2012,01,26,02,50,37.50
2012,01,26,02,51,27.40
2012,01,26,02,52,22.00
2012,01,26,02,53,19.20
2012,01,26,02,54,23.90
2012,01,26,02,55,28.00
2012,01,26,02,56,22.70
2012,01,26,02,57,39.50
2012,01,26,02,58,26.90
2012,01,26,02,59,22.10
2012,01,26,03,00,30.20
2012,01,26,03,01,31.00
2012,01,26,03,02,36.40
2012,01,26,03,03,20.90
2012,01,26,03,04,22.40
2012,01,26,03,05,15.00
2012,01,26,03,06,16.60
2012,01,26,03,07,19.20
2012,01,26,03,08,28.50
2012,01,26,03,09,25.80
2012,01,26,03,10,30.30
2012,01,26,03,11,29.50
2012,01,26,03,12,21.70
2012,01,26,03,13,22.60
2012,01,26,03,14,26.50
2012,01,26,03,15,30.30
2012,01,26,03,16,44.80
2012,01,26,03,17,34.60
2012,01,26,03,18,24.60
2012,01,26,03,19,23.70
2012,01,26,03,20,17.40
2012,01,26,03,21,12.30
2012,01,26,03,22,30.70
2012,01,26,03,23,17.50
2012,01,26,03,24,30.30
2012,01,26,03,25,29.30
2012,01,26,03,26,14.00
2012,01,26,03,27,25.70
2012,01,26,03,28,31.00
2012,01,26,03,29,19.20
2012,01,26,03,30,24.10
2012,01,26,03,31,30.80
2012,01,26,03,32,33.10
2012,01,26,03,33,28.60
2012,01,26,03,34,23.30
2012,01,26,03,35,32.20
2012,01,26,03,36,27.40
2012,01,26,03,37,25.30
2012,01,26,03,38,22.80
2012,01,26,03,39,23.30
2012,01,26,03,40,24.20
2012,01,26,03,41,31.30
2012,01,26,03,42,27.40
2012,01,26,03,43,18.40
2012,01,26,03,44,33.70
2012,01,26,03,45,24.00
2012,01,26,03,46,22.10
2012,01,26,03,47,15.20
2012,01,26,03,48,24.10
2012,01,26,03,49,27.40
2012,01,26,03,50,24.10
2012,01,26,03,51,21.80
2012,01,26,03,52,22.00
2012,01,26,03,53,35.20
2012,01,26,03,54,28.10
2012,01,26,03,55,29.40
2012,01,26,03,56,35.10
2012,01,26,03,57,17.00
2012,01,26,03,58,15.00
2012,01,26,03,59,17.80
2012,01,26,04,00,21.30
2012,01,26,04,01,18.90
2012,01,26,04,02,25.10
2012,01,26,04,03,23.50
2012,01,26,04,04,18.60
2012,01,26,04,05,18.60
2012,01,26,04,06,11.90
2012,01,26,04,07,19.80
2012,01,26,04,08,14.50
2012,01,26,04,09,5.10
2012,01,26,04,10,16.30
2012,01,26,04,11,28.80
2012,01,26,04,12,22.90
2012,01,26,04,13,18.30
2012,01,26,04,14,10.90
2012,01,26,04,15,26.60
2012,01,26,04,16,21.30
2012,01,26,04,17,17.50
2012,01,26,04,18,21.90
2012,01,26,04,19,16.00
2012,01,26,04,20,19.60
2012,01,26,04,21,16.90
2012,01,26,04,22,19.20
2012,01,26,04,23,25.60
2012,01,26,04,24,31.80
2012,01,26,04,25,23.10
2012,01,26,04,26,29.20
2012,01,26,04,27,27.00
2012,01,26,04,28,19.10
2012,01,26,04,29,21.80
2012,01,26,04,30,22.80
2012,01,26,04,31,19.30
2012,01,26,04,32,12.10
2012,01,26,04,33,17.90
2012,01,26,04,34,10.80
2012,01,26,04,35,17.00
2012,01,26,04,36,15.40
2012,01,26,04,37,11.30
2012,01,26,04,38,15.70
2012,01,26,04,39,16.70
2012,01,26,04,40,13.80
2012,01,26,04,41,8.50
2012,01,26,04,42,13.80
2012,01,26,04,43,15.70
2012,01,26,04,44,22.30
2012,01,26,04,45,16.30
2012,01,26,04,46,12.20
2012,01,26,04,47,21.60
2012,01,26,04,48,11.20
2012,01,26,04,49,9.70
2012,01,26,04,50,9.70
2012,01,26,04,51,9.50
2012,01,26,04,52,10.90
2012,01,26,04,53,15.90
2012,01,26,04,54,7.30
2012,01,26,04,55,14.60
2012,01,26,04,56,18.10
2012,01,26,04,57,17.90
2012,01,26,04,58,10.80
2012,01,26,04,59,12.40
2012,01,26,05,00,7.80
2012,01,26,05,01,8.60
2012,01,26,05,02,13.10
2012,01,26,05,03,7.30
2012,01,26,05,04,9.70
2012,01,26,05,05,15.40
2012,01,26,05,06,13.30
2012,01,26,05,07,7.30
2012,01,26,05,08,13.80
2012,01,26,05,09,6.40
2012,01,26,05,10,7.30
2012,01,26,05,11,11.80
2012,01,26,05,12,25.60
2012,01,26,05,13,16.60
2012,01,26,05,14,10.60
2012,01,26,05,15,11.90
2012,01,26,05,16,20.00
2012,01,26,05,17,15.20
2012,01,26,05,18,18.10
2012,01,26,05,19,14.90
2012,01,26,05,20,14.80
2012,01,26,05,21,7.60
2012,01,26,05,22,8.90
2012,01,26,05,23,7.80
2012,01,26,05,24,14.60
2012,01,26,05,25,15.80
2012,01,26,05,26,16.50
2012,01,26,05,27,12.10
2012,01,26,05,28,14.50
2012,01,26,05,29,18.00
2012,01,26,05,30,21.50
2012,01,26,05,31,15.00
2012,01,26,05,32,11.50
2012,01,26,05,33,16.70
2012,01,26,05,34,10.10
2012,01,26,05,35,14.20
2012,01,26,05,36,19.90
2012,01,26,05,37,19.00
2012,01,26,05,38,12.20
2012,01,26,05,39,9.90
2012,01,26,05,40,10.50
2012,01,26,05,41,9.10
2012,01,26,05,42,15.30
2012,01,26,05,43,19.40
2012,01,26,05,44,12.50
2012,01,26,05,45,13.10
2012,01,26,05,46,16.30
2012,01,26,05,47,9.30
2012,01,26,05,48,8.80
2012,01,26,05,49,13.60
2012,01,26,05,50,14.20
2012,01,26,05,51,18.10
2012,01,26,05,52,22.70
2012,01,26,05,53,16.50
2012,01,26,05,54,20.70
2012,01,26,05,55,10.10
2012,01,26,05,56,8.90
2012,01,26,05,57,20.20
2012,01,26,05,58,11.30
2012,01,26,05,59,15.70
2012,01,26,06,00,11.30
2012,01,26,06,01,12.30
2012,01,26,06,02,15.90
2012,01,26,06,03,15.10
2012,01,26,06,04,8.00
2012,01,26,06,05,8.60
2012,01,26,06,06,12.60
2012,01,26,06,07,10.30
2012,01,26,06,08,4.30
2012,01,26,06,09,6.00
2012,01,26,06,10,9.10
2012,01,26,06,11,12.20
2012,01,26,06,12,14.40
2012,01,26,06,13,15.40
2012,01,26,06,14,11.90
2012,01,26,06,15,9.90
2012,01,26,06,16,8.40
2012,01,26,06,17,2.20
2012,01,26,06,18,13.00
2012,01,26,06,19,20.30
2012,01,26,06,20,19.80
2012,01,26,06,21,12.30
2012,01,26,06,22,10.60
2012,01,26,06,23,5.90
2012,01,26,06,24,11.30
2012,01,26,06,25,13.70
2012,01,26,06,26,18.80
2012,01,26,06,27,11.40
2012,01,26,06,28,6.30
2012,01,26,06,29,13.90
2012,01,26,06,30,14.20
2012,01,26,06,31,9.60
2012,01,26,06,32,8.50
2012,01,26,06,33,8.60
2012,01,26,06,34,6.50
2012,01,26,06,35,7.10
2012,01,26,06,36,10.10
2012,01,26,06,37,14.60
2012,01,26,06,38,11.10
2012,01,26,06,39,10.00
2012,01,26,06,40,14.30
2012,01,26,06,41,7.90
2012,01,26,06,42,5.20
2012,01,26,06,43,15.00
2012,01,26,06,44,10.40
2012,01,26,06,45,12.80
2012,01,26,06,46,10.70
2012,01,26,06,47,11.50
2012,01,26,06,48,7.90
2012,01,26,06,49,9.30
2012,01,26,06,50,9.20
2012,01,26,06,51,16.30
2012,01,26,06,52,15.00
2012,01,26,06,53,11.50
2012,01,26,06,54,14.20
2012,01,26,06,55,11.80
2012,01,26,06,56,10.60
2012,01,26,06,57,13.10
2012,01,26,06,58,11.90
2012,01,26,06,59,12.20
2012,01,26,07,00,13.80
2012,01,26,07,01,21.70
2012,01,26,07,02,16.30
2012,01,26,07,03,8.00
2012,01,26,07,04,9.80
2012,01,26,07,05,21.40
2012,01,26,07,06,12.30
2012,01,26,07,07,11.30
2012,01,26,07,08,13.80
2012,01,26,07,09,11.80
2012,01,26,07,10,9.40
2012,01,26,07,11,8.90
2012,01,26,07,12,13.10
2012,01,26,07,13,16.50
2012,01,26,07,14,17.80
2012,01,26,07,15,15.50
2012,01,26,07,16,14.60
2012,01,26,07,17,13.70
2012,01,26,07,18,15.20
2012,01,26,07,19,24.10
2012,01,26,07,20,10.40
2012,01,26,07,21,9.50
2012,01,26,07,22,20.00
2012,01,26,07,23,10.10
2012,01,26,07,24,8.90
2012,01,26,07,25,14.60
2012,01,26,07,26,10.50
2012,01,26,07,27,14.60
2012,01,26,07,28,11.70
2012,01,26,07,29,8.90
2012,01,26,07,30,11.80
2012,01,26,07,31,9.50
2012,01,26,07,32,12.30
2012,01,26,07,33,8.10
2012,01,26,07,34,7.20
2012,01,26,07,35,7.00
2012,01,26,07,36,12.90
2012,01,26,07,37,8.40
2012,01,26,07,38,6.40
2012,01,26,07,39,14.20
2012,01,26,07,40,10.10
2012,01,26,07,41,8.00
2012,01,26,07,42,7.20
2012,01,26,07,43,4.50
2012,01,26,07,44,13.60
2012,01,26,07,45,8.00
2012,01,26,07,46,9.30
2012,01,26,07,47,10.00
2012,01,26,07,48,13.10
2012,01,26,07,49,7.30
2012,01,26,07,50,4.90
2012,01,26,07,51,4.90
2012,01,26,07,52,5.60
2012,01,26,07,53,10.10
2012,01,26,07,54,12.60
2012,01,26,07,55,10.10
2012,01,26,07,56,7.50
2012,01,26,07,57,7.90
2012,01,26,07,58,6.30
2012,01,26,07,59,8.00
2012,01,26,08,00,4.70
2012,01,26,08,01,6.30
2012,01,26,08,02,6.20
2012,01,26,08,03,5.30
2012,01,26,08,04,5.00
2012,01,26,08,05,8.10
2012,01,26,08,06,8.40
2012,01,26,08,07,8.10
2012,01,26,08,08,10.00
2012,01,26,08,09,6.80
2012,01,26,08,10,10.40
2012,01,26,08,11,13.50
2012,01,26,08,12,12.00
2012,01,26,08,13,8.30
2012,01,26,08,14,5.40
2012,01,26,08,15,4.70
2012,01,26,08,16,6.90
2012,01,26,08,17,15.50
2012,01,26,08,18,4.10
2012,01,26,08,19,13.30
2012,01,26,08,20,12.00
2012,01,26,08,21,15.00
2012,01,26,08,22,15.60
2012,01,26,08,23,6.50
2012,01,26,08,24,6.30
2012,01,26,08,25,9.00
2012,01,26,08,26,10.10
2012,01,26,08,27,6.60
2012,01,26,08,28,14.30
2012,01,26,08,29,10.20
2012,01,26,08,30,13.70
2012,01,26,08,31,11.60
2012,01,26,08,32,10.80
2012,01,26,08,33,8.00
2012,01,26,08,34,6.80
2012,01,26,08,35,12.40
2012,01,26,08,36,11.60
2012,01,26,08,37,8.50
2012,01,26,08,38,6.60
2012,01,26,08,39,15.90
2012,01,26,08,40,8.40
2012,01,26,08,41,9.00
2012,01,26,08,42,8.50
2012,01,26,08,43,9.50
2012,01,26,08,44,10.00
2012,01,26,08,45,10.50
2012,01,26,08,46,10.50
2012,01,26,08,47,11.70
2012,01,26,08,48,8.40
2012,01,26,08,49,9.00
2012,01,26,08,50,6.00
2012,01,26,08,51,4.40
2012,01,26,08,52,6.00
2012,01,26,08,53,4.40
2012,01,26,08,54,7.40
2012,01,26,08,55,5.80
2012,01,26,08,56,6.70
2012,01,26,08,57,6.60
2012,01,26,08,58,5.80
2012,01,26,08,59,6.00
2012,01,26,09,00,3.90
2012,01,26,09,01,5.70
2012,01,26,09,02,6.00
2012,01,26,09,03,4.10
2012,01,26,09,04,7.90
2012,01,26,09,05,3.50
2012,01,26,09,06,5.10
2012,01,26,09,07,4.90
2012,01,26,09,08,6.50
2012,01,26,09,09,6.40
2012,01,26,09,10,8.00
2012,01,26,09,11,9.40
2012,01,26,09,12,5.10
2012,01,26,09,13,2.40
2012,01,26,09,14,6.80
2012,01,26,09,15,5.30
2012,01,26,09,16,7.40
2012,01,26,09,17,2.50
2012,01,26,09,18,8.00
2012,01,26,09,19,5.00
2012,01,26,09,20,9.10
2012,01,26,09,21,6.90
2012,01,26,09,22,11.10
2012,01,26,09,23,8.10
2012,01,26,09,24,7.10
2012,01,26,09,25,11.50
2012,01,26,09,26,7.60
2012,01,26,09,27,8.50
2012,01,26,09,28,8.30
2012,01,26,09,29,12.00
2012,01,26,09,30,12.10
2012,01,26,09,31,10.50
2012,01,26,09,32,9.70
2012,01,26,09,33,11.30
2012,01,26,09,34,4.80
2012,01,26,09,35,11.60
2012,01,26,09,36,12.00
2012,01,26,09,37,9.30
2012,01,26,09,38,14.70
2012,01,26,09,39,14.20
2012,01,26,09,40,14.50
2012,01,26,09,41,17.90
2012,01,26,09,42,23.70
2012,01,26,09,43,20.60
2012,01,26,09,44,22.80
2012,01,26,09,45,24.10
2012,01,26,09,46,19.20
2012,01,26,09,47,17.10
2012,01,26,09,48,13.00
2012,01,26,09,49,15.30
2012,01,26,09,50,11.10
2012,01,26,09,51,14.60
2012,01,26,09,52,14.50
2012,01,26,09,53,7.20
2012,01,26,09,54,14.10
2012,01,26,09,55,9.90
2012,01,26,09,56,9.20
2012,01,26,09,57,9.50
2012,01,26,09,58,7.00
2012,01,26,09,59,8.50
2012,01,26,10,00,9.30
2012,01,26,10,01,7.50
2012,01,26,10,02,5.10
2012,01,26,10,03,4.70
2012,01,26,10,04,6.90
2012,01,26,10,05,8.20
2012,01,26,10,06,8.80
2012,01,26,10,07,4.20
2012,01,26,10,08,4.80
2012,01,26,10,09,5.60
2012,01,26,10,10,1.50
2012,01,26,10,11,0.60
2012,01,26,10,12,6.40
2012,01,26,10,13,4.10
2012,01,26,10,14,5.30
2012,01,26,10,15,2.30
2012,01,26,10,16,2.50
2012,01,26,10,17,2.40
2012,01,26,10,18,6.00
2012,01,26,10,19,4.30
2012,01,26,10,20,9.90
2012,01,26,10,21,10.50
2012,01,26,10,22,9.40
2012,01,26,10,23,9.10
2012,01,26,10,24,8.90
2012,01,26,10,25,8.50
2012,01,26,10,26,6.40
2012,01,26,10,27,9.70
2012,01,26,10,28,16.70
2012,01,26,10,29,13.30
2012,01,26,10,30,13.10
2012,01,26,10,31,12.60
2012,01,26,10,32,10.40
2012,01,26,10,33,11.90
2012,01,26,10,34,11.90
2012,01,26,10,35,6.80
2012,01,26,10,36,12.90
2012,01,26,10,37,18.70
2012,01,26,10,38,19.70
2012,01,26,10,39,10.60
2012,01,26,10,40,15.30
2012,01,26,10,41,14.50
2012,01,26,10,42,7.60
2012,01,26,10,43,8.50
2012,01,26,10,44,4.80
2012,01,26,10,45,11.10
2012,01,26,10,46,12.10
2012,01,26,10,47,9.90
2012,01,26,10,48,7.80
2012,01,26,10,49,7.80
2012,01,26,10,50,9.50
2012,01,26,10,51,13.00
2012,01,26,10,52,16.50
2012,01,26,10,53,20.00
2012,01,26,10,54,13.40
2012,01,26,10,55,9.30
2012,01,26,10,56,15.00
2012,01,26,10,57,10.70
2012,01,26,10,58,9.40
2012,01,26,10,59,13.30
2012,01,26,11,00,11.20
2012,01,26,11,01,13.80
2012,01,26,11,02,24.90
2012,01,26,11,03,18.60
2012,01,26,11,04,19.70
2012,01,26,11,05,17.50
2012,01,26,11,06,17.40
2012,01,26,11,07,25.90
2012,01,26,11,08,22.50
2012,01,26,11,09,20.00
2012,01,26,11,10,17.00
2012,01,26,11,11,11.10
2012,01,26,11,12,12.20
2012,01,26,11,13,13.40
2012,01,26,11,14,24.00
2012,01,26,11,15,19.20
2012,01,26,11,16,22.80
2012,01,26,11,17,20.90
2012,01,26,11,18,12.50
2012,01,26,11,19,17.40
2012,01,26,11,20,18.30
2012,01,26,11,21,14.50
2012,01,26,11,22,16.70
2012,01,26,11,23,21.80
2012,01,26,11,24,13.30
2012,01,26,11,25,10.40
2012,01,26,11,26,11.50
2012,01,26,11,27,14.60
2012,01,26,11,28,9.70
2012,01,26,11,29,7.40
2012,01,26,11,30,23.00
2012,01,26,11,31,16.10
2012,01,26,11,32,11.80
2012,01,26,11,33,12.40
2012,01,26,11,34,11.30
2012,01,26,11,35,14.50
2012,01,26,11,36,11.70
2012,01,26,11,37,20.80
2012,01,26,11,38,15.00
2012,01,26,11,39,15.40
2012,01,26,11,40,20.00
2012,01,26,11,41,22.80
2012,01,26,11,42,16.30
2012,01,26,11,43,19.00
2012,01,26,11,44,20.40
2012,01,26,11,45,17.50
2012,01,26,11,46,15.50
2012,01,26,11,47,11.10
2012,01,26,11,48,22.50
2012,01,26,11,49,15.50
2012,01,26,11,50,18.50
2012,01,26,11,51,16.50
2012,01,26,11,52,21.50
2012,01,26,11,53,19.90
2012,01,26,11,54,15.50
2012,01,26,11,55,18.20
2012,01,26,11,56,10.50
2012,01,26,11,57,17.50
2012,01,26,11,58,23.90
2012,01,26,11,59,17.10
2012,01,26,12,00,20.40
2012,01,26,12,01,13.80
2012,01,26,12,02,14.50
2012,01,26,12,03,13.70
2012,01,26,12,04,16.30
2012,01,26,12,05,10.60
2012,01,26,12,06,13.80
2012,01,26,12,07,14.30
2012,01,26,12,08,22.40
2012,01,26,12,09,13.80
2012,01,26,12,10,13.10
2012,01,26,12,11,18.00
2012,01,26,12,12,21.90
2012,01,26,12,13,21.50
2012,01,26,12,14,15.20
2012,01,26,12,15,11.80
2012,01,26,12,16,14.80
2012,01,26,12,17,15.90
2012,01,26,12,18,14.40
2012,01,26,12,19,24.90
2012,01,26,12,20,21.90
2012,01,26,12,21,16.30
2012,01,26,12,22,21.10
2012,01,26,12,23,21.10
2012,01,26,12,24,20.50
2012,01,26,12,25,21.60
2012,01,26,12,26,24.30
2012,01,26,12,27,18.70
2012,01,26,12,28,25.60
2012,01,26,12,29,18.90
2012,01,26,12,30,18.40
2012,01,26,12,31,13.90
2012,01,26,12,32,16.60
2012,01,26,12,33,24.40
2012,01,26,12,34,21.30
2012,01,26,12,35,20.60
2012,01,26,12,36,21.00
2012,01,26,12,37,12.20
2012,01,26,12,38,16.00
2012,01,26,12,39,9.20
2012,01,26,12,40,18.10
2012,01,26,12,41,16.80
2012,01,26,12,42,10.40
2012,01,26,12,43,13.00
2012,01,26,12,44,16.30
2012,01,26,12,45,12.70
2012,01,26,12,46,17.10
2012,01,26,12,47,19.40
2012,01,26,12,48,14.70
2012,01,26,12,49,18.50
2012,01,26,12,50,17.10
2012,01,26,12,51,18.10
2012,01,26,12,52,17.40
2012,01,26,12,53,15.50
2012,01,26,12,54,13.80
2012,01,26,12,55,8.80
2012,01,26,12,56,11.30
2012,01,26,12,57,8.30
2012,01,26,12,58,16.60
2012,01,26,12,59,10.90
2012,01,26,13,00,13.20
2012,01,26,13,01,14.70
2012,01,26,13,02,15.80
2012,01,26,13,03,14.90
2012,01,26,13,04,13.40
2012,01,26,13,05,15.30
2012,01,26,13,06,18.80
2012,01,26,13,07,13.70
2012,01,26,13,08,16.80
2012,01,26,13,09,9.80
2012,01,26,13,10,17.20
2012,01,26,13,11,11.80
2012,01,26,13,12,10.50
2012,01,26,13,13,17.90
2012,01,26,13,14,8.70
2012,01,26,13,15,12.20
2012,01,26,13,16,9.90
2012,01,26,13,17,19.10
2012,01,26,13,18,23.70
2012,01,26,13,19,21.40
2012,01,26,13,20,14.60
2012,01,26,13,21,13.50
2012,01,26,13,22,14.10
2012,01,26,13,23,13.40
2012,01,26,13,24,18.10
2012,01,26,13,25,15.10
2012,01,26,13,26,25.00
2012,01,26,13,27,22.00
2012,01,26,13,28,14.80
2012,01,26,13,29,16.80
2012,01,26,13,30,15.60
2012,01,26,13,31,14.40
2012,01,26,13,32,10.50
2012,01,26,13,33,14.70
2012,01,26,13,34,18.30
2012,01,26,13,35,17.10
2012,01,26,13,36,16.90
2012,01,26,13,37,24.10
2012,01,26,13,38,22.30
2012,01,26,13,39,11.70
2012,01,26,13,40,12.90
2012,01,26,13,41,11.50
2012,01,26,13,42,21.40
2012,01,26,13,43,24.50
2012,01,26,13,44,17.10
2012,01,26,13,45,12.80
2012,01,26,13,46,16.20
2012,01,26,13,47,26.60
2012,01,26,13,48,15.00
2012,01,26,13,49,16.70
2012,01,26,13,50,16.30
2012,01,26,13,51,17.10
2012,01,26,13,52,15.20
2012,01,26,13,53,10.90
2012,01,26,13,54,14.80
2012,01,26,13,55,13.50
2012,01,26,13,56,14.70
2012,01,26,13,57,11.20
2012,01,26,13,58,13.20
2012,01,26,13,59,15.10
2012,01,26,14,00,12.10
2012,01,26,14,01,16.30
2012,01,26,14,02,14.40
2012,01,26,14,03,12.00
2012,01,26,14,04,26.00
2012,01,26,14,05,16.70
2012,01,26,14,06,18.40
2012,01,26,14,07,14.50
2012,01,26,14,08,16.30
2012,01,26,14,09,21.10
2012,01,26,14,10,15.90
2012,01,26,14,11,16.90
2012,01,26,14,12,12.20
2012,01,26,14,13,18.30
2012,01,26,14,14,20.20
2012,01,26,14,15,6.50
2012,01,26,14,16,13.00
2012,01,26,14,17,6.90
2012,01,26,14,18,6.40
2012,01,26,14,19,8.40
2012,01,26,14,20,16.30
2012,01,26,14,21,17.10
2012,01,26,14,22,15.00
2012,01,26,14,23,18.30
2012,01,26,14,24,16.60
2012,01,26,14,25,16.50
2012,01,26,14,26,13.90
2012,01,26,14,27,19.90
2012,01,26,14,28,15.10
2012,01,26,14,29,20.60
2012,01,26,14,30,13.50
2012,01,26,14,31,15.70
2012,01,26,14,32,20.40
2012,01,26,14,33,20.80
2012,01,26,14,34,18.10
2012,01,26,14,35,8.70
2012,01,26,14,36,10.60
2012,01,26,14,37,12.60
2012,01,26,14,38,21.00
2012,01,26,14,39,10.20
2012,01,26,14,40,14.60
2012,01,26,14,41,13.70
2012,01,26,14,42,11.80
2012,01,26,14,43,12.00
2012,01,26,14,44,14.10
2012,01,26,14,45,9.60
2012,01,26,14,46,18.50
2012,01,26,14,47,16.10
2012,01,26,14,48,12.60
2012,01,26,14,49,19.60
2012,01,26,14,50,16.10
2012,01,26,14,51,22.80
2012,01,26,14,52,12.90
2012,01,26,14,53,13.50
2012,01,26,14,54,19.30
2012,01,26,14,55,21.40
2012,01,26,14,56,15.60
2012,01,26,14,57,16.10
2012,01,26,14,58,15.00
2012,01,26,14,59,12.10
2012,01,26,15,00,16.70
2012,01,26,15,01,6.80
2012,01,26,15,02,7.40
2012,01,26,15,03,11.90
2012,01,26,15,04,7.20
2012,01,26,15,05,9.30
2012,01,26,15,06,14.50
2012,01,26,15,07,15.20
2012,01,26,15,08,13.70
2012,01,26,15,09,11.70
2012,01,26,15,10,15.00
2012,01,26,15,11,13.80
2012,01,26,15,12,10.80
2012,01,26,15,13,15.70
2012,01,26,15,14,9.20
2012,01,26,15,15,13.60
2012,01,26,15,16,11.10
2012,01,26,15,17,12.20
2012,01,26,15,18,10.20
2012,01,26,15,19,6.20
2012,01,26,15,20,6.40
2012,01,26,15,21,8.80
2012,01,26,15,22,17.80
2012,01,26,15,23,19.20
2012,01,26,15,24,17.10
2012,01,26,15,25,17.10
2012,01,26,15,26,11.60
2012,01,26,15,27,14.60
2012,01,26,15,28,16.10
2012,01,26,15,29,13.60
2012,01,26,15,30,10.10
2012,01,26,15,31,11.60
2012,01,26,15,32,12.80
2012,01,26,15,33,15.50
2012,01,26,15,34,14.70
2012,01,26,15,35,14.00
2012,01,26,15,36,16.00
2012,01,26,15,37,16.10
2012,01,26,15,38,15.90
2012,01,26,15,39,14.20
2012,01,26,15,40,10.10
2012,01,26,15,41,13.40
2012,01,26,15,42,12.90
2012,01,26,15,43,21.70
2012,01,26,15,44,17.20
2012,01,26,15,45,18.60
2012,01,26,15,46,16.40
2012,01,26,15,47,19.60
2012,01,26,15,48,11.50
2012,01,26,15,49,18.40
2012,01,26,15,50,16.30
2012,01,26,15,51,19.70
2012,01,26,15,52,16.90
2012,01,26,15,53,8.50
2012,01,26,15,54,8.40
2012,01,26,15,55,14.30
2012,01,26,15,56,13.80
2012,01,26,15,57,10.60
2012,01,26,15,58,9.80
2012,01,26,15,59,14.50
2012,01,26,16,00,17.40
2012,01,26,16,01,14.70
2012,01,26,16,02,10.00
2012,01,26,16,03,22.00
2012,01,26,16,04,8.00
2012,01,26,16,05,21.20
2012,01,26,16,06,14.90
2012,01,26,16,07,15.30
2012,01,26,16,08,8.60
2012,01,26,16,09,16.60
2012,01,26,16,10,16.20
2012,01,26,16,11,16.70
2012,01,26,16,12,13.40
2012,01,26,16,13,17.90
2012,01,26,16,14,14.40
2012,01,26,16,15,7.20
2012,01,26,16,16,13.20
2012,01,26,16,17,15.30
2012,01,26,16,18,20.00
2012,01,26,16,19,12.00
2012,01,26,16,20,12.80
2012,01,26,16,21,15.60
2012,01,26,16,22,15.70
2012,01,26,16,23,18.80
2012,01,26,16,24,21.70
2012,01,26,16,25,13.60
2012,01,26,16,26,12.60
2012,01,26,16,27,10.50
2012,01,26,16,28,9.70
2012,01,26,16,29,10.70
2012,01,26,16,30,9.70
2012,01,26,16,31,12.90
2012,01,26,16,32,15.40
2012,01,26,16,33,10.90
2012,01,26,16,34,15.30
2012,01,26,16,35,7.00
2012,01,26,16,36,1.80
2012,01,26,16,37,9.70
2012,01,26,16,38,7.20
2012,01,26,16,39,12.60
2012,01,26,16,40,10.90
2012,01,26,16,41,9.10
2012,01,26,16,42,10.90
2012,01,26,16,43,14.60
2012,01,26,16,44,16.90
2012,01,26,16,45,11.80
2012,01,26,16,46,12.10
2012,01,26,16,47,7.00
2012,01,26,16,48,11.80
2012,01,26,16,49,10.30
2012,01,26,16,50,13.40
2012,01,26,16,51,18.20
2012,01,26,16,52,10.10
2012,01,26,16,53,12.90
2012,01,26,16,54,8.70
2012,01,26,16,55,4.80
2012,01,26,16,56,10.00
2012,01,26,16,57,6.40
2012,01,26,16,58,13.40
2012,01,26,16,59,14.10
2012,01,26,17,00,9.70
2012,01,26,17,01,6.70
2012,01,26,17,02,8.70
2012,01,26,17,03,10.60
2012,01,26,17,04,5.10
2012,01,26,17,05,5.10
2012,01,26,17,06,5.80
2012,01,26,17,07,6.00
2012,01,26,17,08,6.30
2012,01,26,17,09,10.40
2012,01,26,17,10,6.50
2012,01,26,17,11,8.10
2012,01,26,17,12,7.10
2012,01,26,17,13,5.10
2012,01,26,17,14,2.80
2012,01,26,17,15,6.00
2012,01,26,17,16,14.70
2012,01,26,17,17,8.40
2012,01,26,17,18,14.90
2012,01,26,17,19,10.90
2012,01,26,17,20,6.90
2012,01,26,17,21,13.80
2012,01,26,17,22,9.20
2012,01,26,17,23,13.10
2012,01,26,17,24,11.00
2012,01,26,17,25,10.70
2012,01,26,17,26,12.20
2012,01,26,17,27,5.90
2012,01,26,17,28,12.60
2012,01,26,17,29,12.60
2012,01,26,17,30,10.80
2012,01,26,17,31,3.60
2012,01,26,17,32,11.20